Weather History for Erzurum, Turkey

Change the Weather History Date:

Sunday, June 8, 2014

  Actual Average Record
Temperature  
Mean Temperature 56 °F -  
Max Temperature 71 °F 72 °F 78 °F (2006)
Min Temperature 41 °F 48 °F 33 °F (2013)
Degree Days  
Heating Degree Days 9    
Growing Degree Days 6 (Base 50)    
Moisture  
Dew Point 41 °F    
Average Humidity 62    
Maximum Humidity 100    
Minimum Humidity 15    
Precipitation  
Precipitation 0.00 in 0.06 in - ()
Sea Level Pressure  
Sea Level Pressure 30.04 in    
Wind  
Wind Speed 5 mph ()    
Max Wind Speed 13 mph    
Max Gust Speed -    
Visibility 7.1 miles    
Events Thunderstorm    
Averages and records for this station are not official NWS values.
T = Trace of Precipitation, MM = Missing Value Source: Averaged Metar Reports

Daily Weather History Graph

Daily Weather History Graph

Search for Another Location

Airport:

Trip Planner

Search our weather history database for the weather conditions in past years. The results will help you decide how hot, cold, wet, or windy it might be!

Date:

Astronomy

Jun. 08, 2014 Rise Set
Actual Time 4:46 AM EEST 7:42 PM EEST
Civil Twilight 4:14 AM EEST 8:14 PM EEST
Nautical Twilight 3:33 AM EEST 8:55 PM EEST
Astronomical Twilight 2:45 AM EEST 9:43 PM EEST
Moon 2:38 PM EEST (6/8) 1:27 AM EEST (6/8)
Length of Visible Light 16h 00m
Length of Day
14h 55m
Waxing Gibbous, 74% of the Moon is Illuminated
Jun 8
Waxing Gibbous
Jun 13
Full
Jun 19
Last Quarter
Jun 27
New
Jul 5
First Quarter

Hourly Weather History & Observations

Time (EEST) Temp. Windchill Dew Point Humidity Pressure Visibility Wind Dir Wind Speed Gust Speed Precip Events Conditions
12:00 AM 45 °F - 43 °F 90%  in 12 mi SW 4.6 mph - -   Partly Cloudy
12:20 AM 44.6 °F - 42.8 °F 93% 30.04 in 6.2 mi Calm Calm - N/A   Scattered Clouds
12:50 AM 44.6 °F - 42.8 °F 93% 30.06 in 6.2 mi North 2.3 mph - N/A   Scattered Clouds
1:20 AM 44.6 °F - 44.6 °F 100% 30.06 in 6.2 mi Variable 2.3 mph - N/A   Scattered Clouds
1:38 AM 46.4 °F 43.5 °F 42.8 °F 87% 30.06 in 6.2 mi ESE 5.8 mph - N/A Thunderstorm Scattered Clouds
1:50 AM 46.4 °F 42.4 °F 42.8 °F 87% 30.04 in 6.2 mi ENE 8.1 mph - N/A   Scattered Clouds
2:20 AM 44.6 °F 40.7 °F 42.8 °F 93% 30.04 in 6.2 mi NNE 6.9 mph - N/A   Partly Cloudy
2:50 AM 44.6 °F 41.4 °F 42.8 °F 93% 30.04 in 6.2 mi NE 5.8 mph - N/A   Partly Cloudy
3:00 AM 44 °F - 42 °F 89%  in 12 mi NE 3.5 mph - -   Partly Cloudy
3:20 AM 44.6 °F 42.2 °F 42.8 °F 93% 30.04 in 6.2 mi ESE 4.6 mph - N/A   Partly Cloudy
3:50 AM 42.8 °F - 41.0 °F 93% 30.04 in 6.2 mi Calm Calm - N/A   Partly Cloudy
4:20 AM 41.0 °F - 41.0 °F 100% 30.04 in 6.2 mi Calm Calm - N/A   Partly Cloudy
4:50 AM 42.8 °F - 41.0 °F 93% 30.04 in 6.2 mi Variable 2.3 mph - N/A   Partly Cloudy
5:20 AM 46.4 °F 40.7 °F 42.8 °F 87% 30.04 in 6.2 mi ENE 12.7 mph - N/A   Scattered Clouds
5:50 AM 48.2 °F - 44.6 °F 87% 30.04 in 6.2 mi ENE 12.7 mph - N/A   Scattered Clouds
6:00 AM 48 °F - 44 °F 79%  in 12 mi ENE 12.7 mph - -   Partly Cloudy
6:20 AM 46.4 °F 42.9 °F 42.8 °F 87% 30.06 in 6.2 mi South 6.9 mph - N/A   Scattered Clouds
6:50 AM 50.0 °F - 44.6 °F 82% 30.04 in 6.2 mi Variable 2.3 mph - N/A   Partly Cloudy
7:20 AM 51.8 °F - 44.6 °F 76% 30.06 in 6.2 mi ESE 6.9 mph - N/A   Scattered Clouds
7:50 AM 53.6 °F - 44.6 °F 72% 30.06 in 6.2 mi East 9.2 mph - N/A   Partly Cloudy
8:20 AM 55.4 °F - 44.6 °F 67% 30.06 in 6.2 mi ENE 10.4 mph - N/A   Partly Cloudy
8:50 AM 57.2 °F - 44.6 °F 63% 30.04 in 6.2 mi East 10.4 mph - N/A   Partly Cloudy
9:00 AM 57 °F - 46 °F 56%  in 12 mi East 10.4 mph - -   Scattered Clouds
9:20 AM 59.0 °F - 44.6 °F 59% 30.06 in 6.2 mi East 10.4 mph - N/A   Partly Cloudy
9:50 AM 60.8 °F - 48.2 °F 63% 30.06 in 6.2 mi ENE 10.4 mph - N/A   Partly Cloudy
10:20 AM 62.6 °F - 48.2 °F 59% 30.04 in 6.2 mi ENE 10.4 mph - N/A   Scattered Clouds
10:50 AM 62.6 °F - 44.6 °F 52% 30.04 in 6.2 mi NNW 5.8 mph - N/A   Scattered Clouds
11:20 AM 64.4 °F - 42.8 °F 45% 30.04 in 6.2 mi NE 4.6 mph - N/A   Scattered Clouds
11:50 AM 66.2 °F - 46.4 °F 49% 30.04 in 6.2 mi Variable 4.6 mph - N/A   Scattered Clouds
12:00 PM 66 °F - 47 °F 38%  in 12 mi East 4.6 mph - -   Partly Cloudy
12:20 PM 66.2 °F - 46.4 °F 49% 30.04 in 6.2 mi ESE 5.8 mph - N/A   Scattered Clouds
12:50 PM 64.4 °F - 44.6 °F 49% 30.04 in 6.2 mi East 8.1 mph - N/A   Scattered Clouds
1:20 PM 68.0 °F - 42.8 °F 40% 30.04 in 6.2 mi NNW 6.9 mph - N/A   Scattered Clouds
1:50 PM 68.0 °F - 41.0 °F 37% 30.04 in 6.2 mi NNE 4.6 mph - N/A   Scattered Clouds
2:20 PM 69.8 °F - 42.8 °F 38% 30.01 in 6.2 mi SW 8.1 mph - N/A   Scattered Clouds
2:50 PM 71.6 °F - 41.0 °F 33% 30.01 in 6.2 mi SW 9.2 mph - N/A   Scattered Clouds
3:00 PM 71 °F - 38 °F 19%  in 12 mi SW 9.2 mph - -   Mostly Cloudy
3:20 PM 69.8 °F - 37.4 °F 31% 30.01 in 6.2 mi South 10.4 mph - N/A   Scattered Clouds
3:50 PM 71.6 °F - 32.0 °F 23% 30.01 in 6.2 mi SW 9.2 mph - N/A   Scattered Clouds
4:20 PM 69.8 °F - 33.8 °F 27% 30.01 in 6.2 mi SW 9.2 mph - N/A   Scattered Clouds
4:50 PM 69.8 °F - 30.2 °F 23% 30.01 in 6.2 mi SW 9.2 mph - N/A   Scattered Clouds
5:20 PM 69.8 °F - 30.2 °F 23% 30.01 in 6.2 mi SSW 8.1 mph - N/A   Scattered Clouds
5:50 PM 68.0 °F - 32.0 °F 26% 30.01 in 6.2 mi SW 8.1 mph - N/A   Scattered Clouds
6:00 PM 69 °F - 32 °F 15%  in 12 mi SW 8.1 mph - -   Partly Cloudy
6:20 PM 68.0 °F - 33.8 °F 28% 30.01 in 6.2 mi WSW 9.2 mph - N/A   Scattered Clouds
6:50 PM 64.4 °F - 35.6 °F 34% 30.01 in 6.2 mi WSW 6.9 mph - N/A   Partly Cloudy
7:20 PM 62.6 °F - 35.6 °F 37% 30.01 in 6.2 mi SW 3.5 mph - N/A   Partly Cloudy
7:50 PM 62.6 °F - 35.6 °F 37% 30.04 in 6.2 mi WSW 4.6 mph - N/A   Partly Cloudy
8:20 PM 57.2 °F - 42.8 °F 59% 30.04 in 6.2 mi West 8.1 mph - N/A   Partly Cloudy
8:50 PM 53.6 °F - 42.8 °F 67% 30.06 in 6.2 mi Variable 1.2 mph - N/A   Partly Cloudy
9:00 PM 53 °F - 42 °F 58%  in 12 mi West 1.2 mph - -   Scattered Clouds
9:20 PM 55.4 °F - 42.8 °F 63% 30.06 in - Variable 1.2 mph - N/A   Clear
9:50 PM 51.8 °F - 42.8 °F 71% 30.06 in - Calm Calm - N/A   Clear
10:20 PM 51.8 °F - 42.8 °F 71% 30.06 in - Calm Calm - N/A   Clear
10:50 PM 50.0 °F - 42.8 °F 76% 30.06 in - Variable 1.2 mph - N/A   Clear
11:20 PM 44.6 °F 43.1 °F 41.0 °F 87% 30.06 in - ESE 3.5 mph - N/A   Clear
11:50 PM 46.4 °F 44.3 °F 41.0 °F 81% 30.06 in - WSW 4.6 mph - N/A   Clear